LiveATC.Net - Listen to live air traffic control over the Internet!


ICAO: PABE  IATA: BET   Airport: Bethel Airport
City: Bethel   State/Province: Alaska
Country: United States   Continent: North America
PABE METAR Weather: PABE 260526Z 16006KT 10SM FEW030 OVC043 06/03 A2961 RMK AO2 RAB0456E07 P0000 T00560033
PABE ADS-B Flight Tracking (ADSBExchange)
PABE Flight Activity (FlightAware)
PABE Webcam:  (Airport Webcams) 
PABE Airport Info   (iFlightPlanner)
PABE VFR Sectional Chart   (iFlightPlanner) 
PABE IFR Low Altitude Chart   (iFlightPlanner) 
PABE IFR High Altitude Chart   (iFlightPlanner) 

ZAN Anchorage Center (Bethel)
Feed Status: UP   Listeners: 3
Listen in your browser - HTML5 player (in browser, HTML5)
Click here to listen with your own player (launches your MP3 player)
Archive Access: ZAN Anchorage Center (Bethel)
FacilityFrequency
Anchorage Center (High)127.500
Anchorage Center (Low)125.200

ICAO: PADQ  IATA: ADQ   Airport: Kodiak Airport
City: Kodiak   State/Province: Alaska
Country: United States   Continent: North America
PADQ METAR Weather: PADQ 260453Z 00000KT 10SM BKN009 BKN120 09/07 A2967 RMK AO2 CIG 008V012 SLP050 T00890072
PADQ ADS-B Flight Tracking (ADSBExchange)
PADQ Flight Activity (FlightAware)
PADQ Webcam:  (Airport Webcams) 
PADQ Airport Info   (iFlightPlanner)
PADQ VFR Sectional Chart   (iFlightPlanner) 
PADQ IFR Low Altitude Chart   (iFlightPlanner) 
PADQ IFR High Altitude Chart   (iFlightPlanner) 

PADQ Gnd/Twr/ZAN
Feed Status: UP   Listeners: 3
Listen in your browser - HTML5 player (in browser, HTML5)
Click here to listen with your own player (launches your MP3 player)
Archive Access: PADQ Gnd/Twr/ZAN
FacilityFrequency
Anchorage Center (Kodiak RCAG, Low Sector)125.100
Kodiak Ground121.900
Kodiak Tower119.800
NOTE: Anchorage Center simulcasts on all transmitters across Alaska - so most of the time you are not likely to hear aircraft on those frequencies, unless they are inbound to or outbound to Kodiak.

ICAO: PAFA  IATA: FAI   Airport: Fairbanks International Airport
City: Fairbanks   State/Province: Alaska
Country: United States   Continent: North America
PAFA METAR Weather: PAFA 260453Z 00000KT 10SM FEW070 SCT120 SCT170 04/01 A2978 RMK AO2 SLP093 T00440011 $
PAFA ADS-B Flight Tracking (ADSBExchange)
PAFA Flight Activity (FlightAware)
PAFA Webcam:  (Airport Webcams) 
PAFA Airport Info   (iFlightPlanner)
PAFA VFR Sectional Chart   (iFlightPlanner) 
PAFA IFR Low Altitude Chart   (iFlightPlanner) 
PAFA IFR High Altitude Chart   (iFlightPlanner) 

Anchorage Center (PAFA Area)
Feed Status: DOWN
Last heard on: 2022-09-10 18:58:22 (15 days 10 hours 36 minutes ago)
Archive Access: Anchorage Center (PAFA Area)
FacilityFrequency
Anchorage Center120.900
Anchorage Center135.300
Anchorage Center135.600

ICAO: PAHO  IATA: HOM   Airport: Homer Airport
City: Homer   State/Province: Alaska
Country: United States   Continent: North America
PAHO METAR Weather: PAHO 260453Z 03004KT 10SM CLR 06/04 A2973 RMK AO2 SLP066 T00610044
PAHO ADS-B Flight Tracking (ADSBExchange)
PAHO Flight Activity (FlightAware)
PAHO Webcam:  
PAHO Airport Info   (iFlightPlanner)
PAHO VFR Sectional Chart   (iFlightPlanner) 
PAHO IFR Low Altitude Chart   (iFlightPlanner) 
PAHO IFR High Altitude Chart   (iFlightPlanner) 

ZAN Anchorage Ctr (Homer/High)
Feed Status: UP   Listeners: 3
Listen in your browser - HTML5 player (in browser, HTML5)
Click here to listen with your own player (launches your MP3 player)
Archive Access: ZAN Anchorage Ctr (Homer/High)
FacilityFrequency
Anchorage Center (Homer, High)133.800
Anchorage Center (Sector 63/69)125.950
Anchorage Center (Sector 63/69)127.500
Anchorage Center (Sector 63/69)127.600
Anchorage Center (Sector 63/69)133.050
Anchorage Center (Sector 63/69)133.800
Anchorage Center (Sector 63/69)134.550
Anchorage Center (Sector 68)120.550
Anchorage Center (Sector 68)124.050
Anchorage Center (Sector 68)127.300
Feed sponsored by:
Angle of Attack and LiveATC.net


ZAN Anchorage Ctr (Homer/Low)
Feed Status: UP   Listeners: 3
Listen in your browser - HTML5 player (in browser, HTML5)
Click here to listen with your own player (launches your MP3 player)
Archive Access: ZAN Anchorage Ctr (Homer/Low)
FacilityFrequency
Anchorage Center (Homer, Low)125.900
Feed sponsored by:
Angle of Attack and LiveATC.net


ICAO: PANC  IATA: ANC   Airport: Ted Stevens Anchorage International Airport
City: Anchorage   State/Province: Alaska
Country: United States   Continent: North America
PANC METAR Weather: PANC 260453Z 16009KT 10SM FEW050 SCT070 BKN095 09/04 A2974 RMK AO2 RAB04E36 SLP074 P0000 T00890044 $
PANC ADS-B Flight Tracking (ADSBExchange)
PANC Flight Activity (FlightAware)
PANC Webcam:  (Airport Webcams) 
PANC Airport Info   (iFlightPlanner)
PANC VFR Sectional Chart   (iFlightPlanner) 
PANC IFR Low Altitude Chart   (iFlightPlanner) 
PANC IFR High Altitude Chart   (iFlightPlanner) 

ZAN Anchorage Center (Misc)
Feed Status: DOWN
Last heard on: 2022-07-14 16:16:40 (73 days 13 hours 18 minutes ago)
Archive Access: ZAN Anchorage Center (Misc)
FacilityFrequency
Anchorage Center132.300
Anchorage Center (Big Lake RCAG High/Low)133.700
Anchorage Center (Johnstone Point RCAG High/Low)119.300
Anchorage Center (Kenai RCAG High/Low)119.700
Anchorage Center (Kenai RCAG High/Low)123.900
Anchorage Center (Kenai RCAG High/Low)125.700
Anchorage Center (Middleton Island RCAG Low)133.600
Anchorage Center (Sparrevohn RCAG High)134.300
Anchorage Center (Talkeetna RCAG High/Low)125.550
Feed sponsored by: SkyTrek Alaska Flight Training

ICAO: PASC  IATA: SCC   Airport: Deadhorse Airport
City: Deadhorse   State/Province: Alaska
Country: United States   Continent: North America
PASC METAR Weather: PASC 260453Z 07014KT 10SM FEW008 OVC013 M01/M03 A3005 RMK AO2 SLP177 T10061028 PNO $
PASC ADS-B Flight Tracking (ADSBExchange)
PASC Flight Activity (FlightAware)
PASC Webcam:  (Airport Webcams) 
PASC Airport Info   (iFlightPlanner)
PASC VFR Sectional Chart   (iFlightPlanner) 
PASC IFR Low Altitude Chart   (iFlightPlanner) 
PASC IFR High Altitude Chart   (iFlightPlanner) 

PASC CTAF/Unicom/AFIS/App
Feed Status: UP   Listeners: 1
Listen in your browser - HTML5 player (in browser, HTML5)
Click here to listen with your own player (launches your MP3 player)
Archive Access: PASC CTAF/Unicom/AFIS/App
FacilityFrequency
Deadhorse AFIS118.400
Deadhorse CTAF123.600
Deadhorse UNICOM123.000

NOTICE

Unauthorized use prohibited. See LiveATC.net Terms of Service


Airport/ARTCC Code
Frequency Search
(e.g., 124.400, 128.75)
Site-wide search
 


Browse Feeds
Top 50 Feeds
HF Oceanic Feeds
Coverage Map
Bad Weather Areas

LiveATC FAQ
Offer LiveATC feed
Contact LiveATC.net
Press Inquiries

LiveATC on iPhone
LiveATC on Android

LiveATC Mobile
(Mobile browser)

ATC Audio Archives
Interesting Recordings

LiveATC Forums


Home Page
About LiveATC.net


Terms of Use
Privacy Policy

AIRMETs/SIGMETs

FAA Airport Status
NAS Status
Arrival Demand


Server Software By:
Icecast.org
Liquidsoap